World > North America > United States > Ohio > Lodi  

Lodi, OH Hourly Weather Updates

Feedback E-mail the Weather

Quick Clicks

Lodi, OH Weather Maps

°F °C°F °C
Lodi Weather Map
UTC Time: 6/23/2024, 11:51
Your Time:

Lodi, OH Regional Weather

Expires:202406231200;;519103
ASUS41 KCLE 231112
RWRCLE
OHIO REGIONAL WEATHER ROUNDUP
NATIONAL WEATHER SERVICE WILMINGTON, OH
700 AM EDT SUN JUN 23 2024

NOTE: "FAIR" INDICATES FEW OR NO CLOUDS BELOW 12,000 FEET WITH NO
SIGNIFICANT WEATHER AND/OR OBSTRUCTIONS TO VISIBILITY.


OHZ009>014-019>023-028>033-038-089-231200-
   NORTHEAST OHIO
  
CITY           SKY/WX    TMP DP  RH WIND       PRES   REMARKS
CLE-HOPKINS    CLOUDY    82  65  56 SW16G24   29.69S                  
CLE-LAKEFRONT  LGT RAIN  85  66  53 SW14G24   29.67F                  
CUY CO. ARPT   CLOUDY    81  66  61 SW16G24   29.69F                  
LORAIN-ELYRIA  LGT RAIN  74  67  78 NW14G30   29.75R                  
ASHTABULA      FAIR      79  67  66 S10       29.70F                  
AKRON-CANTON   CLOUDY    78  67  68 SW15G24   29.76F                  
WOOSTER        FAIR      79  67  66 SW12      29.76F                  
MANSFIELD      CLOUDY    79  65  62 SW17G29   29.76F                  
YOUNGSTOWN     CLOUDY    78  68  71 S12       29.75F                  
$$
 

SKY/WX - Weather  TMP - Temperature  DP - Dew Point  RH - Humidity
WIND - Wind Direction/Speed PRES - Barometric Pressure VSB - Visibility
WCI - Wind Chill Index E13G22 Wind - East Wind 13 mph/Gusts of 22 mph

Trending Headlines

Trending Entertainment Headlines

Lodi Radar Loop

Use the map search tool if you want to place a location marker on the radar map...

Lodi Quick Facts

National Two Day Weather Forecast


E-mail the Lodi Weather Forecast

Voice your opinion or tell us about page issues...